EW4858 Weather Reports


Display with metric or nautical units.
time (UTC)temp
F
wind
direction
speed
MPH
gust
MPH
rain 1hr
in
rain 24hr
in
rain mn
in
humidity
%
barometer
mb
20260905144541 66 302 0.0 0.0 0.00 0.00 0.00 69 1009.4
20260905143039 64 302 0.0 0.0 0.00 0.00 0.00 73 1009.3
20260905141537 62 302 0.0 0.0 0.00 0.00 0.00 77 1009.3
20260905140037 60 302 0.0 2.0 0.00 0.00 0.00 80 1009.2
20260905134544 59 302 0.0 0.0 0.00 0.00 0.00 80 1008.9
20260905133035 59 302 0.0 0.0 0.00 0.00 0.00 81 1008.8
20260905131535 59 302 0.0 0.0 0.00 0.00 0.00 81 1008.7
20260905130033 59 302 0.0 0.0 0.00 0.00 0.00 80 1008.6
20260905124533 59 302 0.0 0.0 0.00 0.00 0.00 81 1008.4
20260905123032 60 302 0.0 0.0 0.00 0.00 0.00 82 1008.4
20260905121529 60 302 0.0 0.0 0.00 0.00 0.00 82 1008.4
20260905114529 60 302 0.0 0.0 0.00 0.00 0.00 82 1008.4
20260905113024 60 302 0.0 0.0 0.00 0.00 0.00 82 1008.5
20260905111522 61 302 0.0 0.0 0.00 0.00 0.00 82 1008.5
20260905110021 61 302 0.0 0.0 0.00 0.00 0.00 82 1008.6
20260905104521 61 302 0.0 0.0 0.00 0.00 0.00 82 1008.5
20260905103027 61 302 0.0 0.0 0.00 0.00 0.00 82 1008.5
20260905101519 61 302 0.0 0.0 0.00 0.00 0.00 81 1008.7
20260905100016 62 302 0.0 0.0 0.00 0.00 0.00 81 1008.7
20260905094517 62 302 0.0 0.0 0.00 0.00 0.00 80 1008.7
20260905093013 62 302 0.0 0.0 0.00 0.00 0.00 80 1008.8
20260905091512 62 302 0.0 0.0 0.00 0.00 0.00 80 1008.7
20260905090010 63 302 0.0 0.0 0.00 0.00 0.00 79 1008.9
20260905084508 63 302 0.0 0.0 0.00 0.00 0.00 79 1009.0
20260905083010 63 302 0.0 0.0 0.00 0.00 0.00 79 1009.0
20260905081503 64 302 0.0 0.0 0.00 0.00 0.00 78 1009.3
20260905080006 64 302 0.0 0.0 0.00 0.00 0.00 78 1009.4
20260905074502 64 302 0.0 3.0 0.00 0.00 0.00 78 1009.6
20260905073104 64 302 0.0 3.0 0.00 0.00 0.00 77 1009.8
20260905071605 64 303 0.0 0.0 0.00 0.00 0.00 78 1009.8
20260905070055 65 303 0.0 3.0 0.00 0.00 0.00 81 1009.7
20260905064555 66 303 0.0 0.0 0.00 0.00 0.00 82 1009.6
20260905063054 66 303 0.0 0.0 0.00 0.00 0.00 82 1009.7
20260905061606 67 303 0.0 0.0 0.00 0.00 0.00 82 1009.5
20260905060058 67 303 0.0 3.0 0.00 0.00 0.00 82 1009.4
20260905054554 67 302 0.0 0.0 0.00 0.00 0.00 81 1009.4
20260905053052 68 307 0.0 3.0 0.00 0.00 0.00 81 1009.4
20260905051600 68 315 0.0 3.0 0.00 0.00 0.00 80 1009.4
20260905050051 68 307 0.0 5.0 0.00 0.00 0.00 79 1009.3
20260905044552 68 329 0.0 0.0 0.00 0.00 0.00 79 1009.2
20260905043057 69 329 0.0 3.0 0.00 0.00 0.00 78 1009.0
20260905041550 69 329 0.0 0.0 0.00 0.00 0.00 77 1008.9
20260905040056 70 329 0.0 0.0 0.00 0.00 0.00 76 1008.9
20260905034551 70 307 0.0 0.0 0.00 0.00 0.00 74 1008.8
20260905033053 71 315 0.0 0.0 0.00 0.00 0.00 70 1008.7
20260905031551 72 31 0.0 4.0 0.00 0.00 0.00 68 1008.5
20260905030057 73 38 0.0 6.0 0.00 0.00 0.00 66 1008.2
20260905024546 74 47 3.0 6.0 0.00 0.00 0.00 64 1008.0
20260905023046 75 63 2.0 5.0 0.00 0.00 0.00 61 1007.9
20260905021546 77 47 3.0 7.0 0.00 0.00 0.00 51 1008.0
20260905020049 78 38 2.0 7.0 0.00 0.00 0.00 45 1007.9
20260905014543 79 44 4.0 7.0 0.00 0.00 0.00 42 1007.8
20260905013049 80 36 0.0 7.0 0.00 0.00 0.00 43 1007.7
20260905011622 81 17 0.0 7.0 0.00 0.00 0.00 43 1007.7
20260905010043 80 41 3.0 6.0 0.00 0.00 0.00 43 1007.6
20260905004542 81 55 4.0 8.0 0.00 0.00 0.00 43 1007.7
20260905003040 80 79 2.0 10.0 0.00 0.00 0.00 46 1007.7
20260905001550 81 62 5.0 9.0 0.00 0.00 0.00 45 1007.8
20260905000042 81 67 4.0 9.0 0.00 0.00 0.00 45 1007.9
20260904234539 81 70 6.0 12.0 0.00 0.00 0.00 45 1007.8
20260904233041 81 69 5.0 11.0 0.00 0.00 0.00 46 1007.8
20260904231537 81 53 7.0 11.0 0.00 0.00 0.00 46 1007.9
20260904230037 82 61 6.0 11.0 0.00 0.00 0.00 45 1007.9
20260904224536 82 40 5.0 10.0 0.00 0.00 0.00 45 1007.9
20260904223036 82 65 6.0 12.0 0.00 0.00 0.00 42 1008.1
20260904221533 83 17 7.0 14.0 0.00 0.00 0.00 42 1008.2
20260904220033 83 20 6.0 11.0 0.00 0.00 0.00 43 1008.2
20260904214531 83 360 6.0 11.0 0.00 0.00 0.00 44 1008.3
20260904213032 83 56 7.0 13.0 0.00 0.00 0.00 43 1008.2
20260904211529 83 92 6.0 13.0 0.00 0.00 0.00 44 1008.2
20260904210034 83 24 7.0 12.0 0.00 0.00 0.00 45 1008.3
20260904204531 83 28 4.0 11.0 0.00 0.00 0.00 45 1008.3
20260904203027 83 111 5.0 10.0 0.00 0.00 0.00 47 1008.3
20260904201524 82 51 7.0 13.0 0.00 0.00 0.00 48 1008.4
20260904200028 82 360 4.0 12.0 0.00 0.00 0.00 48 1008.5
20260904194523 82 66 8.0 13.0 0.00 0.00 0.00 48 1008.6
20260904193025 82 24 0.0 10.0 0.00 0.00 0.00 44 1008.8
20260904191522 81 97 1.0 7.0 0.00 0.00 0.00 46 1008.9
20260904190017 80 103 2.0 8.0 0.00 0.00 0.00 48 1009.1
20260904184513 79 360 3.0 8.0 0.00 0.00 0.00 50 1009.3
20260904183011 78 11 6.0 10.0 0.00 0.00 0.00 52 1009.5
20260904181526 77 86 0.0 8.0 0.00 0.00 0.00 55 1009.5
20260904180008 77 11 5.0 8.0 0.00 0.00 0.00 56 1009.6
20260904174502 76 20 0.0 8.0 0.00 0.00 0.00 60 1009.7
20260904173058 74 325 1.0 6.0 0.00 0.00 0.00 62 1009.7
20260904171604 72 149 0.0 5.0 0.00 0.00 0.00 66 1009.8
20260904170053 71 128 0.0 4.0 0.00 0.00 0.00 68 1009.8
20260904164549 71 93 0.0 2.0 0.00 0.00 0.00 70 1009.7
20260904163050 70 58 0.0 3.0 0.00 0.00 0.00 70 1009.8
20260904161544 69 306 0.0 2.0 0.00 0.00 0.00 72 1009.6
20260904160041 68 30 0.0 4.0 0.00 0.00 0.00 73 1009.5
20260904154546 68 275 2.0 5.0 0.00 0.00 0.00 75 1009.6
20260904153038 68 297 1.0 4.0 0.00 0.00 0.00 75 1009.6
20260904151538 66 263 0.0 4.0 0.00 0.00 0.00 77 1009.5
20260904150034 66 247 3.0 6.0 0.00 0.00 0.00 78 1009.4